Weather History for Aberdeen, United Kingdom

Change the Weather History Date:

Tuesday, November 6, 2012

  Actual Average Record
Temperature  
Mean Temperature 47 °F -  
Max Temperature 55 °F 46 °F 57 °F (2003)
Min Temperature 39 °F 35 °F 30 °F (2011)
Degree Days  
Heating Degree Days 18    
Moisture  
Dew Point 43 °F    
Average Humidity 79    
Maximum Humidity 88    
Minimum Humidity 57    
Precipitation  
Precipitation 0.08 in 0.10 in - ()
Sea Level Pressure  
Sea Level Pressure 29.81 in    
Wind  
Wind Speed 10 mph ()    
Max Wind Speed 25 mph    
Max Gust Speed 29 mph    
Visibility 6.5 miles    
Events Rain    
Averages and records for this station are not official NWS values.
T = Trace of Precipitation, MM = Missing Value Source: Averaged Metar Reports

Daily Weather History Graph

Daily Weather History Graph

Search for Another Location

Airport:

Trip Planner

Search our weather history database for the weather conditions in past years. The results will help you decide how hot, cold, wet, or windy it might be!

Date:

Astronomy

Nov. 06, 2012 Rise Set
Actual Time 7:31 AM GMT 4:12 PM GMT
Civil Twilight 6:49 AM GMT 4:54 PM GMT
Nautical Twilight 6:03 AM GMT 5:40 PM GMT
Astronomical Twilight 5:18 AM GMT 6:25 PM GMT
Moon 10:48 PM GMT (11/6) 1:08 PM GMT (11/6)
Length of Visible Light 10h 04m
Length of Day
8h 40m
Waning Gibbous, 55% of the Moon is Illuminated
Nov 6
Waning Gibbous
Nov 7
Last Quarter
Nov 13
New
Nov 20
First Quarter
Nov 28
Full

Hourly Weather History & Observations

Time (GMT) Temp. Windchill Dew Point Humidity Pressure Visibility Wind Dir Wind Speed Gust Speed Precip Events Conditions
12:20 AM 39.2 °F 33.0 °F 32.0 °F 75% 29.89 in - West 9.2 mph - N/A   Clear
12:50 AM 39.2 °F 33.0 °F 33.8 °F 81% 29.86 in - West 9.2 mph - N/A   Clear
1:20 AM 41.0 °F 35.2 °F 33.8 °F 76% 29.86 in - WSW 9.2 mph - N/A   Clear
1:50 AM 39.2 °F 33.0 °F 33.8 °F 81% 29.83 in 6.2 mi WSW 9.2 mph - N/A   Partly Cloudy
2:20 AM 41.0 °F 37.1 °F 35.6 °F 81% 29.83 in 6.2 mi WSW 5.8 mph - N/A   Scattered Clouds
2:50 AM 41 °F - 35 °F 70% 29.83 in 25 mi WSW 8.1 mph - - Rain Light Rain
2:50 AM 41.0 °F 35.2 °F 35.6 °F 81% 29.83 in 6.2 mi WSW 9.2 mph - N/A   Overcast
3:20 AM 41.0 °F 36.4 °F 35.6 °F 81% 29.80 in 6.2 mi West 6.9 mph - N/A Rain Light Rain
3:50 AM 41.0 °F 39.0 °F 37.4 °F 87% 29.80 in 6.2 mi Variable 3.5 mph - N/A   Unknown
4:20 AM 42.8 °F 38.6 °F 37.4 °F 81% 29.77 in 5.6 mi WSW 6.9 mph - N/A Rain Light Rain Showers
4:50 AM 42.8 °F 40.1 °F 39.2 °F 87% 29.77 in 6.2 mi WSW 4.6 mph - N/A Rain Light Rain
5:20 AM 42.8 °F 39.3 °F 39.2 °F 87% 29.74 in 6.2 mi West 5.8 mph - N/A   Partly Cloudy
5:50 AM 45 °F - 40 °F 78% 29.75 in 25 mi West 11.5 mph - - Rain Rain
5:50 AM 44.6 °F 39.7 °F 39.2 °F 81% 29.74 in 6.2 mi West 9.2 mph - N/A   Partly Cloudy
6:20 AM 46.4 °F 42.9 °F 41.0 °F 81% 29.74 in 6.2 mi West 6.9 mph - N/A   Partly Cloudy
6:50 AM 46.4 °F 41.9 °F 41.0 °F 81% 29.74 in 6.2 mi West 9.2 mph - N/A Rain Light Rain
7:20 AM 46.4 °F 41.9 °F 42.8 °F 87% 29.74 in 6.2 mi West 9.2 mph - N/A Rain Light Rain
7:50 AM 48.2 °F - 44.6 °F 87% 29.74 in 6.2 mi West 12.7 mph - N/A Rain Light Rain
8:20 AM 48.2 °F - 44.6 °F 87% 29.71 in 6.2 mi West 13.8 mph - N/A Rain Light Rain
8:50 AM 50 °F - 43 °F 69% 29.74 in 22 mi WNW 19.6 mph - - Rain Rain
8:50 AM 50.0 °F - 42.8 °F 76% 29.74 in 6.2 mi WNW 17.3 mph - N/A   Partly Cloudy
9:20 AM 50.0 °F - 44.6 °F 82% 29.74 in 6.2 mi WNW 16.1 mph - N/A Rain Light Rain
9:50 AM 50.0 °F - 44.6 °F 82% 29.74 in 6.2 mi WNW 16.1 mph 28.8 mph N/A   Partly Cloudy
10:20 AM 51.8 °F - 44.6 °F 76% 29.74 in 6.2 mi WNW 16.1 mph - N/A   Partly Cloudy
10:50 AM 51.8 °F - 46.4 °F 82% 29.74 in 6.2 mi WNW 16.1 mph - N/A   Partly Cloudy
11:20 AM 51.8 °F - 46.4 °F 82% 29.74 in 6.2 mi WNW 16.1 mph - N/A   Scattered Clouds
11:50 AM 54 °F - 46 °F 66% 29.76 in 22 mi WNW 19.6 mph - - Rain Rain
11:50 AM 53.6 °F - 46.4 °F 77% 29.74 in 6.2 mi WNW 16.1 mph - N/A   Scattered Clouds
12:20 PM 53.6 °F - 46.4 °F 77% 29.77 in 6.2 mi WNW 15.0 mph - N/A   Mostly Cloudy
12:50 PM 53.6 °F - 46.4 °F 77% 29.77 in 6.2 mi WNW 17.3 mph - N/A   Mostly Cloudy
1:20 PM 53.6 °F - 46.4 °F 77% 29.77 in 6.2 mi WNW 15.0 mph - N/A   Mostly Cloudy
1:50 PM 53.6 °F - 46.4 °F 77% 29.77 in 6.2 mi WNW 16.1 mph - N/A   Mostly Cloudy
2:20 PM 53.6 °F - 46.4 °F 77% 29.80 in 6.2 mi WNW 15.0 mph - N/A   Mostly Cloudy
2:50 PM 54 °F - 47 °F 69% 29.81 in 22 mi WNW 13.8 mph - -   Overcast
2:50 PM 53.6 °F - 46.4 °F 77% 29.80 in 6.2 mi WNW 13.8 mph - N/A   Mostly Cloudy
3:20 PM 53.6 °F - 48.2 °F 82% 29.80 in 6.2 mi WNW 12.7 mph - N/A   Mostly Cloudy
3:50 PM 53.6 °F - 46.4 °F 77% 29.83 in 6.2 mi WNW 15.0 mph - N/A   Mostly Cloudy
4:20 PM 53.6 °F - 46.4 °F 77% 29.83 in 6.2 mi NW 13.8 mph - N/A   Mostly Cloudy
4:50 PM 53.6 °F - 48.2 °F 82% 29.83 in 6.2 mi NW 12.7 mph - N/A   Mostly Cloudy
5:20 PM 51.8 °F - 48.2 °F 88% 29.86 in 6.2 mi NW 10.4 mph - N/A   Mostly Cloudy
5:50 PM 53 °F - 47 °F 73% 29.86 in 14 mi NW 11.5 mph - -   Overcast
5:50 PM 53.6 °F - 46.4 °F 77% 29.86 in 6.2 mi WNW 11.5 mph - N/A   Mostly Cloudy
6:20 PM 53.6 °F - 48.2 °F 82% 29.86 in 6.2 mi WNW 10.4 mph - N/A   Mostly Cloudy
6:50 PM 51.8 °F - 48.2 °F 88% 29.89 in 3.7 mi WNW 11.5 mph - N/A Rain Light Rain
7:20 PM 51.8 °F - 48.2 °F 88% 29.89 in 5.0 mi WNW 10.4 mph - N/A Rain Light Rain
7:50 PM 51.8 °F - 48.2 °F 88% 29.89 in 6.2 mi West 6.9 mph - N/A   Mostly Cloudy
8:20 PM 51.8 °F - 48.2 °F 88% 29.89 in 6.2 mi WNW 8.1 mph - N/A   Mostly Cloudy
8:50 PM 52 °F - 46 °F 75% 29.90 in 25 mi WNW 12.7 mph - -   Mostly Cloudy
8:50 PM 51.8 °F - 46.4 °F 82% 29.89 in 6.2 mi WNW 10.4 mph - N/A   Mostly Cloudy
9:20 PM 51.8 °F - 46.4 °F 82% 29.89 in 6.2 mi West 6.9 mph - N/A   Scattered Clouds
9:50 PM 50.0 °F - 44.6 °F 82% 29.92 in 6.2 mi WNW 12.7 mph - N/A   Scattered Clouds
10:20 PM 50.0 °F - 42.8 °F 76% 29.92 in 6.2 mi West 15.0 mph - N/A   Partly Cloudy
10:50 PM 50.0 °F - 41.0 °F 71% 29.89 in - WNW 21.9 mph - N/A   Clear
11:20 PM 50.0 °F - 39.2 °F 66% 29.89 in - WNW 25.3 mph - N/A   Clear
11:50 PM 49 °F - 38 °F 57% 29.90 in 17 mi WNW 19.6 mph - -   Scattered Clouds
11:50 PM 50.0 °F - 39.2 °F 66% 29.89 in 6.2 mi WNW 13.8 mph - N/A   Unknown